Radioactive Concentration measured by Seawater Radiation Monitor near Fukushima Daiichi Nuclear Power Station
Date,Time,Cs137(Bq/L),Cs134(Bq/L),Total β(Bq/L)
2017/07/02,00:00,0.80,0.058,ND
2017/07/02,00:10,0.84,0.051,ND
2017/07/02,00:20,0.88,0.046,ND
2017/07/02,00:30,0.88,0.051,ND
2017/07/02,00:40,0.86,0.054,ND
2017/07/02,00:50,0.88,0.047,ND
2017/07/02,01:00,0.88,0.043,ND
2017/07/02,01:10,0.86,0.042,ND
2017/07/02,01:20,0.82,0.055,ND
2017/07/02,01:30,0.83,0.048,ND
2017/07/02,01:40,0.86,0.044,ND
2017/07/02,01:50,0.82,0.073,ND
2017/07/02,02:00,0.86,0.061,ND
2017/07/02,02:10,0.84,0.10,ND
2017/07/02,02:20,0.90,0.082,ND
2017/07/02,02:30,0.91,0.089,ND
2017/07/02,02:40,0.88,0.11,ND
2017/07/02,02:50,0.92,0.097,ND
2017/07/02,03:00,0.92,0.094,ND
2017/07/02,03:10,0.90,0.085,ND
2017/07/02,03:20,0.85,0.10,ND
2017/07/02,03:30,0.88,0.073,ND
2017/07/02,03:40,0.82,0.099,ND
2017/07/02,03:50,0.86,0.053,ND
2017/07/02,04:00,0.86,0.045,ND
2017/07/02,04:10,0.85,0.040,ND
2017/07/02,04:20,0.86,0.031,ND
2017/07/02,04:30,0.83,0.032,ND
2017/07/02,04:40,0.86,ND,ND
2017/07/02,04:50,0.77,0.027,ND
2017/07/02,05:00,0.72,0.032,ND
2017/07/02,05:10,0.70,0.036,ND
2017/07/02,05:20,0.66,0.032,ND
2017/07/02,05:30,0.64,0.048,ND
2017/07/02,05:40,0.61,0.052,ND
2017/07/02,05:50,0.61,0.051,ND
2017/07/02,06:00,0.61,0.049,ND
2017/07/02,06:10,0.59,0.053,ND
2017/07/02,06:20,0.65,0.031,ND
2017/07/02,06:30,0.62,0.046,ND
2017/07/02,06:40,0.60,0.051,ND
2017/07/02,06:50,0.60,0.056,ND
2017/07/02,07:00,0.62,0.054,ND
2017/07/02,07:10,0.59,0.079,ND
2017/07/02,07:20,0.65,0.039,ND
2017/07/02,07:30,0.66,0.035,ND
2017/07/02,07:40,0.68,0.029,ND
2017/07/02,07:50,0.72,ND,ND
2017/07/02,08:00,0.65,0.033,ND
2017/07/02,08:10,0.60,0.061,ND
2017/07/02,08:20,0.59,0.059,ND
2017/07/02,08:30,0.63,0.026,ND
2017/07/02,08:40,0.62,0.029,ND
2017/07/02,08:50,0.66,ND,ND
2017/07/02,09:00,0.67,ND,ND
2017/07/02,09:10,0.67,ND,ND
2017/07/02,09:20,0.69,ND,ND
2017/07/02,09:30,0.63,0.048,ND
2017/07/02,09:40,0.73,ND,ND
2017/07/02,09:50,0.75,ND,ND
2017/07/02,10:00,0.72,0.029,ND
2017/07/02,10:10,0.74,0.029,ND
2017/07/02,10:20,0.74,0.034,ND
2017/07/02,10:30,0.74,0.039,ND
2017/07/02,10:40,0.73,0.044,ND
2017/07/02,10:50,0.74,0.045,ND
2017/07/02,11:00,0.71,0.071,ND
2017/07/02,11:10,0.73,0.066,ND
2017/07/02,11:20,0.74,0.057,ND
2017/07/02,11:30,0.75,0.061,ND
2017/07/02,11:40,0.79,0.026,ND
2017/07/02,11:50,0.78,0.030,ND
2017/07/02,12:00,0.77,0.030,ND
2017/07/02,12:10,0.75,0.041,ND
2017/07/02,12:20,0.75,0.046,ND
2017/07/02,12:30,0.76,0.034,ND
2017/07/02,12:40,0.75,0.044,ND
2017/07/02,12:50,0.74,0.052,ND
2017/07/02,13:00,0.76,0.062,ND
2017/07/02,13:10,0.78,0.052,ND
2017/07/02,13:20,0.83,0.042,ND
2017/07/02,13:30,0.85,0.039,ND
2017/07/02,13:40,0.86,0.047,ND
2017/07/02,13:50,0.86,0.041,ND
2017/07/02,14:00,0.85,0.038,ND
2017/07/02,14:10,0.86,0.036,ND
2017/07/02,14:20,0.83,0.045,ND
2017/07/02,14:30,0.82,0.051,ND
2017/07/02,14:40,0.78,0.071,ND
2017/07/02,14:50,0.79,0.066,ND
2017/07/02,15:00,0.83,0.036,ND
2017/07/02,15:10,0.83,0.042,ND
2017/07/02,15:20,0.80,0.067,ND
2017/07/02,15:30,0.83,0.052,ND
2017/07/02,15:40,0.80,0.072,ND
2017/07/02,15:50,0.83,0.055,ND
2017/07/02,16:00,0.86,0.049,ND
2017/07/02,16:10,0.89,0.042,ND
2017/07/02,16:20,0.90,0.047,ND
2017/07/02,16:30,0.87,0.076,ND
2017/07/02,16:40,0.90,0.064,ND
2017/07/02,16:50,0.91,0.067,ND
2017/07/02,17:00,0.90,0.062,ND
2017/07/02,17:10,0.88,0.065,ND
2017/07/02,17:20,0.82,0.083,ND
2017/07/02,17:30,0.81,0.075,ND
2017/07/02,17:40,0.84,0.034,ND
2017/07/02,17:50,0.82,0.028,ND
2017/07/02,18:00,0.79,0.026,ND
2017/07/02,18:10,0.76,0.031,ND
2017/07/02,18:20,0.71,0.068,ND
2017/07/02,18:30,0.69,0.072,ND
2017/07/02,18:40,0.71,0.045,ND
2017/07/02,18:50,0.70,0.050,ND
2017/07/02,19:00,0.71,0.052,ND
2017/07/02,19:10,0.70,0.048,ND
2017/07/02,19:20,0.72,0.035,ND
2017/07/02,19:30,0.73,0.031,ND
2017/07/02,19:40,0.69,0.052,ND
2017/07/02,19:50,0.71,0.031,ND
2017/07/02,20:00,0.71,0.026,ND
2017/07/02,20:10,0.77,ND,ND
2017/07/02,20:20,0.68,0.043,ND
2017/07/02,20:30,0.67,0.043,ND
2017/07/02,20:40,0.67,0.041,ND
2017/07/02,20:50,0.65,0.057,ND
2017/07/02,21:00,0.62,0.062,ND
2017/07/02,21:10,0.62,0.042,ND
2017/07/02,21:20,0.67,ND,ND
2017/07/02,21:30,0.67,ND,ND
2017/07/02,21:40,0.65,ND,ND
2017/07/02,21:50,0.56,0.061,ND
2017/07/02,22:00,0.59,0.033,ND
2017/07/02,22:10,0.59,0.033,ND
2017/07/02,22:20,0.57,0.034,ND
2017/07/02,22:30,0.56,0.057,ND
2017/07/02,22:40,0.62,ND,ND
2017/07/02,22:50,0.62,ND,ND
2017/07/02,23:00,0.62,ND,ND
2017/07/02,23:10,0.65,ND,ND
2017/07/02,23:20,0.63,ND,ND
2017/07/02,23:30,0.56,0.028,ND
2017/07/02,23:40,0.57,0.026,ND
2017/07/02,23:50,0.57,0.034,ND
